Regional Weather Roundup
Issued by NWS

Home | Current Version | Previous Version | Graphics & Text | Print | Product List | Glossary On
Versions: 1 2 3 4 5 6 7 8 9 10 11 12 13 14 15 16 17 18 19 20 21 22 23 24 25 26 27
000
ASUS45 KCYS 312210
RWRWY

WYOMING REGIONAL WEATHER ROUNDUP
NATIONAL WEATHER SERVICE CHEYENNE WY
400 PM MDT TUE MAY 31 2016

NOTE:  "FAIR" INDICATES FEW OR NO CLOUDS BELOW 12,000 FEET
WITH NO SIGNIFICANT WEATHER AND/OR OBSTRUCTIONS TO VISIBILITY.

WYZ001-312300-
YELLOWSTONE NATIONAL PARK

CITY           SKY/WX    TMP DP  RH WIND       PRES   REMARKS
LK YELLOWSTONE   N/A     53  24  32 VRB5      30.24F
W YELLOWSTONE  NOT AVBL

$$
WYZ002>013-054>058-071-098>099-312300-
NORTHERN WYOMING

CITY           SKY/WX    TMP DP  RH WIND       PRES   REMARKS
JACKSON        SUNNY     63  18  17 W7        30.14S
CODY           FAIR      61  36  39 NE10G18   30.13S
GREYBULL       FAIR      67  30  25 N18G28    30.08F
WORLAND        FAIR      69  25  19 NW13G21   30.09S
SHERIDAN       FAIR      61  41  47 NW22G32   30.14S
BUFFALO        CLOUDY    55  38  52 N24G40    30.14R
GILLETTE       FAIR      56  40  55 NW26G37   30.10S
HULETT         CLOUDY    52  43  71 NW15G29   30.10S
NEWCASTLE      FAIR      55  34  44 NW29G35   30.08F

$$
WYZ014>020-022>026-101>103-312300-
CENTRAL WYOMING

CITY           SKY/WX    TMP DP  RH WIND       PRES   REMARKS
BIG PINEY      FAIR      64  28  25 NW10      30.14F
PINEDALE       FAIR      63  23  22 NW13G20   30.15F
DUBOIS         FAIR      63  16  16 E5G16     30.13S
LANDER         FAIR      63  37  38 VRB5      30.09F
RIVERTON       FAIR      64  31  28 NE6       30.11F
CASPER         FAIR      62  25  24 W8G23     30.11F
DOUGLAS          N/A    N/A N/A N/A MISG      30.10S

$$
WYZ021-027>030-104>119-312300-
SOUTHERN WYOMING

CITY           SKY/WX    TMP DP  RH WIND       PRES   REMARKS
EVANSTON       PTSUNNY   64  31  28 CALM      30.15F
KEMMERER         N/A     64  30  27 W14G21    30.17S
FORT BRIDGER   PTCLDY    68  32  26 NW7       30.17F
ROCK SPRINGS   FAIR      66  29  24 VRB7      30.12F
DIXON          FAIR      67  34  29 N9G20     30.14F
RAWLINS        FAIR      62  29  28 MISG      30.14F
SARATOGA       FAIR      61  32  33 NW14      30.15F
LARAMIE        CLOUDY    58  32  37 N16G23    30.14S
CHEYENNE       LGT RAIN  58  43  57 NE5       30.11F
TORRINGTON     FAIR      69  31  24 NW13      30.03F
PINE BLUFFS    CLOUDY    61  41  48 CALM      30.10R

$$




USA.gov is the U.S. government's official web portal to all federal, state and local government web resources and services.